Location: Ash Swamp
(41.5170°N, 74.6157°W)
Time: 02:12:56
(UTC+00:00)

CARTOSAT-1 - Pass Details

Date: 14 July 2020
Orbit: 617 x 618 km, 97.8° (Epoch: 14 August)

Event Time Altitude Azimuth Distance (km) Brightness Sun altitude
Exits shadow 02:01:03 22° 123° (ESE) 1,370 4.7 -13.9°
Maximum altitude 02:03:15 36° 71° (ENE) 980 4.4 -14.2°
Drops below altitude 10° 02:07:13 10° 5° (N) 1,991 6.8 -14.7°
Sets 02:09:32 0° 357° (N) 2,901 7.9 -15.0°
